CW6761 Weather Reports


Display with metric or nautical units.
time (UTC)temp
F
wind
direction
speed
MPH
gust
MPH
rain 1hr
in
rain 24hr
in
rain mn
in
humidity
%
barometer
mb
20260508080129 52 318 2.0 0.0 0.00 0.00 0.04 86 1013.0
20260508075613 52 38 2.0 0.0 0.00 0.00 0.04 86 1013.0
20260508074620 52 88 3.0 0.0 0.00 0.00 0.04 85 1013.0
20260508073631 52 133 2.0 0.0 0.00 0.00 0.04 84 1012.8
20260508072616 51 127 2.0 0.0 0.00 0.00 0.04 84 1012.6
20260508072120 51 140 1.0 0.0 0.00 0.00 0.04 84 1012.6
20260508071623 51 123 1.0 0.0 0.00 0.00 0.04 84 1012.5
20260508071131 51 99 0.0 0.0 0.00 0.00 0.04 84 1012.5
20260508070634 51 131 0.0 0.0 0.00 0.00 0.04 85 1012.5
20260508070120 51 131 1.0 0.0 0.00 0.00 0.04 85 1012.7
20260508065618 51 61 1.0 0.0 0.00 0.00 0.04 86 1012.6
20260508064628 51 355 2.0 0.0 0.00 0.00 0.04 86 1012.7
20260508064126 51 324 1.0 0.0 0.00 0.00 0.04 85 1012.7
20260508063613 51 78 2.0 0.0 0.00 0.00 0.04 85 1012.8
20260508063117 51 240 2.0 0.0 0.00 0.00 0.03 84 1012.8
20260508062621 51 153 3.0 0.0 0.00 0.00 0.03 84 1012.8
20260508062123 51 16 2.0 0.0 0.00 0.00 0.03 84 1012.8
20260508061626 51 189 1.0 0.0 0.00 0.00 0.02 84 1012.7
20260508061125 51 195 1.0 0.0 0.00 0.00 0.02 83 1012.5
20260508060113 51 232 3.0 0.0 0.00 0.00 0.02 82 1012.4
20260508055622 52 65 3.0 0.0 0.00 0.00 0.02 81 1012.3
20260508055128 52 292 3.0 0.0 0.00 0.00 0.02 80 1012.3
20260508054630 52 74 3.0 0.0 0.00 0.00 0.02 79 1012.1
20260508054126 53 60 3.0 0.0 0.00 0.00 0.02 78 1012.1
20260508053612 53 111 3.0 0.0 0.00 0.00 0.00 76 1012.2
20260508052620 53 145 3.0 0.0 0.00 0.00 0.00 75 1011.8
20260508052123 53 128 3.0 0.0 0.00 0.00 0.00 73 1011.7
20260508051627 53 146 3.0 0.0 0.00 0.00 0.00 73 1011.8
20260508051125 53 120 4.0 0.0 0.00 0.00 0.00 73 1011.9
20260508050629 53 57 4.0 0.0 0.00 0.00 0.00 73 1012.0
20260508050130 53 77 4.0 0.0 0.00 0.00 0.00 72 1012.0
20260508045614 53 22 3.0 0.0 0.00 0.00 0.00 72 1012.0
20260508044621 54 61 4.0 0.0 0.00 0.00 0.00 72 1011.9
20260508044128 54 335 4.0 0.0 0.00 0.00 0.00 72 1012.0
20260508043631 54 122 3.0 0.0 0.00 0.00 0.00 71 1011.9
20260508043122 54 173 4.0 0.0 0.00 0.00 0.00 71 1011.7
20260508042618 54 102 5.0 0.0 0.00 0.00 0.00 70 1011.7
20260508041626 54 184 4.0 0.0 0.00 0.00 0.00 69 1011.7
20260508041129 54 28 4.0 0.0 0.00 0.00 0.00 69 1011.6
20260508040117 54 105 3.0 0.0 0.00 0.00 0.00 70 1011.5
20260508035621 54 123 3.0 0.0 0.00 0.00 0.00 70 1011.5
20260508035124 54 72 3.0 0.0 0.00 0.00 0.00 70 1011.6
20260508034626 54 38 2.0 0.0 0.00 0.00 0.00 71 1011.6
20260508034126 54 105 2.0 0.0 0.00 0.00 0.00 70 1011.9
20260508033629 54 139 3.0 0.0 0.00 0.00 0.00 70 1011.9
20260508033113 54 242 5.0 0.0 0.00 0.00 0.00 70 1012.0
20260508032126 54 119 4.0 0.0 0.00 0.00 0.00 70 1011.8
20260508031630 54 180 2.0 0.0 0.00 0.00 0.00 70 1011.7
20260508030118 54 55 3.0 0.0 0.00 0.00 0.00 70 1011.5
20260508025621 54 229 3.0 0.0 0.00 0.00 0.00 70 1011.5
20260508025123 54 88 2.0 0.0 0.00 0.00 0.00 71 1011.6
20260508024125 54 355 1.0 0.0 0.00 0.00 0.00 71 1011.5
20260508023627 54 67 2.0 0.0 0.00 0.00 0.00 71 1011.6
20260508023128 54 331 2.0 0.0 0.00 0.00 0.00 70 1011.6
20260508022630 54 94 2.0 0.0 0.00 0.00 0.00 70 1011.5
20260508022118 54 360 2.0 0.0 0.00 0.00 0.00 70 1011.4
20260508021620 55 301 2.0 0.0 0.00 0.00 0.00 70 1011.6
20260508021130 55 34 1.0 0.0 0.00 0.00 0.00 70 1011.6
20260508020633 55 316 1.0 0.0 0.00 0.00 0.00 69 1011.6
20260508020118 55 5 2.0 0.0 0.00 0.00 0.00 69 1011.7
20260508015617 55 190 3.0 0.0 0.00 0.00 0.00 68 1011.7
20260508015119 55 198 2.0 0.0 0.00 0.00 0.00 67 1011.5
20260508014621 55 130 1.0 0.0 0.00 0.00 0.00 67 1011.5
20260508014125 55 5 1.0 0.0 0.00 0.00 0.00 67 1011.3
20260508013111 55 317 1.0 0.0 0.00 0.00 0.00 67 1011.1
20260508012119 55 52 1.0 0.0 0.00 0.00 0.00 66 1011.2
20260508011624 55 32 1.0 0.0 0.00 0.00 0.00 67 1011.4
20260508011128 55 33 1.0 0.0 0.00 0.00 0.00 66 1011.4
20260508010610 56 321 1.0 0.0 0.00 0.00 0.00 66 1011.5
20260508010113 56 40 1.0 0.0 0.00 0.00 0.00 65 1011.6
20260508005621 56 17 1.0 0.0 0.00 0.00 0.00 64 1011.7
20260508005126 56 206 1.0 0.0 0.00 0.00 0.00 64 1011.8
20260508004630 56 288 1.0 0.0 0.00 0.00 0.00 65 1011.8
20260508004127 56 155 1.0 0.0 0.00 0.00 0.00 63 1012.0
20260508003630 56 348 2.0 0.0 0.00 0.00 0.00 63 1012.0
20260508003113 57 227 3.0 0.0 0.00 0.00 0.00 62 1012.0
20260508002616 57 182 4.0 0.0 0.00 0.00 0.00 61 1012.1
20260508002122 57 190 3.0 0.0 0.00 0.00 0.00 61 1012.1
20260508001626 57 155 2.0 0.0 0.00 0.00 0.00 60 1012.0
20260508001128 57 124 2.0 0.0 0.00 0.00 0.00 59 1012.0
20260508000612 57 19 1.0 0.0 0.00 0.00 0.00 59 1012.1
20260508000114 57 260 1.0 0.0 0.00 0.00 0.00 59 1012.1
20260507235618 57 99 3.0 0.0 0.00 0.00 0.01 60 1012.3
20260507234627 56 30 2.0 0.0 0.00 0.00 0.01 63 1012.5
20260507234117 56 310 2.0 0.0 0.00 0.00 0.01 65 1012.6
20260507233618 55 15 3.0 0.0 0.00 0.00 0.01 65 1012.5
20260507233123 55 304 4.0 0.0 0.00 0.00 0.01 66 1012.5
20260507232620 55 305 4.0 0.0 0.00 0.00 0.01 68 1012.7
20260507232129 55 312 4.0 0.0 0.00 0.00 0.01 67 1012.7
20260507231613 55 303 4.0 0.0 0.00 0.00 0.01 67 1012.8
20260507230620 55 323 2.0 0.0 0.00 0.00 0.01 67 1012.9
20260507230124 56 319 2.0 0.0 0.00 0.00 0.01 67 1012.9
20260507225626 56 316 1.0 0.0 0.00 0.00 0.01 67 1013.0
20260507225126 56 330 1.0 0.0 0.00 0.00 0.01 66 1013.0
20260507224629 56 355 2.0 0.0 0.00 0.00 0.01 67 1013.0
20260507224130 56 78 2.0 0.0 0.00 0.00 0.01 65 1013.1
20260507223613 56 105 2.0 0.0 0.00 0.00 0.01 65 1013.1
20260507223117 56 330 1.0 0.0 0.00 0.00 0.01 66 1012.9
20260507222626 57 280 2.0 0.0 0.00 0.00 0.01 67 1013.0
20260507222134 57 318 2.0 0.0 0.00 0.00 0.01 63 1013.0
20260507221120 57 9 2.0 0.0 0.00 0.00 0.01 64 1013.0
20260507220624 57 327 1.0 0.0 0.00 0.00 0.01 64 1013.1
20260507220127 57 31 2.0 0.0 0.00 0.00 0.01 63 1013.2
20260507215118 57 289 2.0 0.0 0.00 0.00 0.01 63 1013.2
20260507214620 57 213 2.0 0.0 0.00 0.00 0.01 63 1013.4
20260507214124 57 320 2.0 0.0 0.00 0.00 0.01 63 1013.3
20260507213627 57 345 2.0 0.0 0.00 0.00 0.01 62 1013.3
20260507212613 58 284 2.0 0.0 0.00 0.00 0.01 62 1013.3
20260507212118 58 325 2.0 0.0 0.00 0.00 0.01 61 1013.2
20260507211622 58 68 2.0 0.0 0.00 0.00 0.01 60 1013.2
20260507211131 59 134 2.0 0.0 0.00 0.00 0.01 59 1013.1
20260507210635 59 136 1.0 0.0 0.00 0.00 0.01 59 1013.1
20260507205619 59 188 1.0 0.0 0.00 0.00 0.01 58 1012.9
20260507205123 59 51 1.0 0.0 0.00 0.00 0.01 57 1012.7
20260507204626 59 346 2.0 0.0 0.00 0.00 0.01 58 1012.6
20260507204127 59 325 3.0 0.0 0.00 0.00 0.01 58 1012.4
20260507203630 59 336 2.0 0.0 0.00 0.00 0.01 57 1012.5
20260507203113 60 289 3.0 0.0 0.00 0.00 0.01 57 1012.4
20260507202616 60 329 2.0 0.0 0.00 0.00 0.01 57 1012.2
20260507202123 60 331 1.0 0.0 0.00 0.00 0.01 55 1012.1
20260507201626 60 17 2.0 0.0 0.00 0.00 0.01 55 1012.1
20260507201125 60 90 4.0 0.0 0.00 0.00 0.01 54 1012.0
20260507200115 60 49 3.0 0.0 0.00 0.00 0.01 56 1011.9
20260507195623 60 262 3.0 0.0 0.00 0.00 0.01 55 1011.9
20260507195127 60 64 2.0 0.0 0.00 0.00 0.01 55 1011.7
20260507194631 60 117 3.0 0.0 0.00 0.00 0.01 55 1011.7
20260507194128 61 121 4.0 0.0 0.00 0.00 0.01 55 1011.6
20260507192128 61 140 4.0 0.0 0.00 0.00 0.01 55 1011.3
20260507191115 60 128 1.0 0.0 0.00 0.00 0.01 55 1011.2
20260507190624 61 312 2.0 0.0 0.00 0.00 0.01 54 1010.8
20260507190126 61 317 4.0 0.0 0.00 0.00 0.01 54 1010.8
20260507185630 61 313 4.0 0.0 0.00 0.00 0.01 54 1010.8
20260507185115 62 316 3.0 0.0 0.00 0.00 0.01 53 1010.7
20260507184618 63 314 2.0 0.0 0.00 0.00 0.01 51 1010.7
20260507184125 64 317 1.0 0.0 0.00 0.00 0.01 50 1010.7
20260507183629 64 15 1.0 0.0 0.00 0.00 0.01 48 1010.6
20260507183134 65 20 1.0 0.0 0.00 0.00 0.01 46 1010.6
20260507182611 65 351 2.0 0.0 0.00 0.00 0.01 46 1010.6
20260507182115 65 49 3.0 0.0 0.00 0.00 0.01 45 1010.7
20260507181617 66 18 2.0 0.0 0.00 0.00 0.01 45 1010.6
20260507181125 66 51 1.0 0.0 0.00 0.00 0.01 45 1010.6
20260507180628 66 5 0.0 0.0 0.00 0.00 0.01 46 1010.7
20260507174627 66 165 1.0 0.0 0.00 0.00 0.01 44 1010.6
20260507174130 66 157 3.0 0.0 0.00 0.00 0.01 44 1010.6
20260507173120 67 139 5.0 0.0 0.00 0.00 0.01 40 1010.6
20260507172135 68 125 5.0 0.0 0.00 0.00 0.01 39 1010.5
20260507171619 68 171 5.0 0.0 0.00 0.00 0.01 38 1010.5
20260507171116 68 182 5.0 0.0 0.00 0.00 0.01 38 1010.4
20260507170619 69 146 2.0 0.0 0.00 0.00 0.01 38 1010.4
20260507170127 68 110 1.0 0.0 0.00 0.00 0.01 40 1010.4
20260507165611 67 281 1.0 0.0 0.00 0.00 0.01 39 1010.4
20260507165114 66 138 2.0 0.0 0.00 0.00 0.01 39 1010.4
20260507164617 66 155 2.0 0.0 0.00 0.00 0.01 39 1010.4
20260507164120 67 126 1.0 0.0 0.00 0.00 0.01 40 1010.4
20260507162613 66 139 2.0 0.0 0.00 0.00 0.01 41 1010.4
20260507162115 67 138 3.0 0.0 0.00 0.00 0.01 43 1010.4
20260507161618 67 136 3.0 0.0 0.00 0.00 0.01 45 1010.4
20260507161121 67 140 3.0 0.0 0.00 0.00 0.01 41 1010.4
20260507160625 67 97 3.0 0.0 0.00 0.00 0.01 39 1010.4
20260507160129 68 133 3.0 0.0 0.00 0.00 0.01 39 1010.5
20260507155611 68 118 4.0 0.0 0.00 0.00 0.01 39 1010.4
20260507155114 68 159 4.0 0.0 0.00 0.00 0.01 36 1010.4
20260507154616 69 175 4.0 0.0 0.00 0.00 0.01 37 1010.4
20260507153129 70 277 4.0 0.0 0.00 0.00 0.01 34 1010.5
20260507152614 70 355 4.0 0.0 0.00 0.00 0.01 35 1010.6
20260507152117 70 138 4.0 0.0 0.00 0.00 0.01 35 1010.7
20260507151620 69 65 3.0 0.0 0.00 0.00 0.01 35 1010.6
20260507151123 68 162 3.0 0.0 0.00 0.00 0.01 36 1010.7
20260507150625 68 152 4.0 0.0 0.00 0.00 0.01 37 1010.8
20260507150125 68 211 5.0 0.0 0.00 0.00 0.01 34 1010.9
20260507145619 69 137 5.0 0.0 0.00 0.00 0.01 35 1010.9
20260507145121 69 106 5.0 0.0 0.00 0.00 0.01 37 1010.9
20260507144626 69 185 4.0 0.0 0.00 0.00 0.01 35 1010.9
20260507143629 68 251 4.0 0.0 0.00 0.00 0.01 36 1011.0
20260507143130 68 190 4.0 0.0 0.00 0.00 0.01 36 1011.1
20260507142613 68 182 4.0 0.0 0.00 0.00 0.01 37 1011.1
20260507142117 68 99 3.0 0.0 0.00 0.00 0.01 41 1011.1
20260507141619 67 80 3.0 0.0 0.00 0.00 0.01 38 1011.2
20260507141123 67 228 2.0 0.0 0.00 0.00 0.01 37 1011.2
20260507140628 67 155 2.0 0.0 0.00 0.00 0.01 38 1011.3
20260507140113 66 131 2.0 0.0 0.00 0.00 0.01 42 1011.5
20260507135615 65 77 3.0 0.0 0.00 0.00 0.01 40 1011.5
20260507135119 64 11 4.0 0.0 0.00 0.00 0.01 46 1011.6
20260507134621 65 126 5.0 0.0 0.00 0.00 0.01 51 1011.8
20260507134128 66 123 5.0 0.0 0.00 0.00 0.01 51 1011.6
20260507133634 66 174 5.0 0.0 0.00 0.00 0.01 45 1011.5
20260507133117 66 108 5.0 0.0 0.00 0.00 0.01 45 1011.5
20260507132122 66 107 4.0 0.0 0.00 0.00 0.01 46 1011.5
20260507131626 67 117 3.0 0.0 0.00 0.00 0.01 44 1011.4
20260507130612 67 163 3.0 0.0 0.00 0.00 0.01 41 1011.6
20260507130115 66 109 3.0 0.0 0.00 0.00 0.01 42 1011.6
20260507125126 67 104 4.0 0.0 0.00 0.00 0.01 43 1011.6
20260507124610 67 114 3.0 0.0 0.00 0.00 0.01 43 1011.6
20260507124113 66 136 2.0 0.0 0.00 0.00 0.01 43 1011.7
20260507123616 65 71 2.0 0.0 0.00 0.00 0.01 47 1011.9
20260507123120 65 230 3.0 0.0 0.00 0.00 0.01 46 1011.9
20260507122116 66 49 3.0 0.0 0.00 0.00 0.01 46 1012.0
20260507121620 67 64 3.0 0.0 0.00 0.00 0.01 47 1012.1
20260507121119 68 115 3.0 0.0 0.00 0.00 0.01 45 1012.2
20260507120621 68 155 3.0 0.0 0.00 0.00 0.01 44 1012.2
20260507120125 68 94 3.0 0.0 0.00 0.00 0.01 43 1012.4
20260507115612 68 81 2.0 0.0 0.00 0.00 0.01 47 1012.4
20260507114620 67 121 3.0 0.0 0.00 0.00 0.01 46 1012.5
20260507114122 67 147 3.0 0.0 0.00 0.00 0.01 46 1012.4
20260507113627 67 166 3.0 0.0 0.00 0.00 0.01 47 1012.5
20260507113128 67 90 3.0 0.0 0.00 0.00 0.01 50 1012.7
20260507112612 67 101 3.0 0.0 0.00 0.00 0.01 48 1012.8
20260507112116 67 90 3.0 0.0 0.00 0.00 0.01 49 1012.7
20260507111618 66 74 3.0 0.0 0.00 0.00 0.01 52 1012.8
20260507111128 66 143 4.0 0.0 0.00 0.00 0.01 50 1012.8
20260507110634 65 94 5.0 0.0 0.00 0.00 0.01 51 1012.8
20260507110118 65 134 5.0 0.0 0.00 0.00 0.01 51 1012.8
20260507105619 65 127 5.0 0.0 0.00 0.00 0.01 52 1012.9
20260507105122 65 65 4.0 0.0 0.00 0.00 0.01 53 1012.9
20260507104111 65 67 3.0 0.0 0.00 0.00 0.01 53 1012.9
20260507103615 65 130 3.0 0.0 0.00 0.00 0.01 53 1012.9
20260507102621 65 31 3.0 0.0 0.00 0.00 0.01 52 1013.0
20260507102125 66 113 3.0 0.0 0.00 0.00 0.01 53 1012.9
20260507101628 66 106 3.0 0.0 0.00 0.00 0.01 49 1013.0
20260507101130 66 139 3.0 0.0 0.00 0.00 0.01 52 1013.0
20260507100119 65 128 4.0 0.0 0.00 0.00 0.01 48 1012.9
20260507095627 64 86 3.0 0.0 0.00 0.00 0.01 49 1012.8
20260507095118 64 152 2.0 0.0 0.00 0.00 0.01 48 1012.8
20260507094621 63 75 2.0 0.0 0.00 0.00 0.01 47 1012.8
20260507094119 63 120 2.0 0.0 0.00 0.00 0.01 51 1012.7
20260507093621 61 145 1.0 0.0 0.00 0.00 0.01 47 1012.7
20260507093124 60 55 1.0 0.0 0.00 0.00 0.01 50 1012.9
20260507092627 60 93 1.0 0.0 0.00 0.00 0.01 52 1012.9
20260507092110 60 316 2.0 0.0 0.00 0.00 0.01 54 1012.9
20260507091614 59 28 3.0 0.0 0.00 0.00 0.01 53 1012.9
20260507091118 59 33 3.0 0.0 0.00 0.00 0.01 52 1012.9
20260507090621 59 29 3.0 0.0 0.00 0.00 0.01 55 1012.8
20260507090125 59 107 2.0 0.0 0.00 0.00 0.01 58 1012.8
20260507085612 58 49 2.0 0.0 0.00 0.00 0.01 63 1012.8
20260507085112 57 11 2.0 0.0 0.00 0.00 0.01 68 1012.8
20260507084615 56 294 3.0 0.0 0.00 0.00 0.01 74 1012.8
20260507084123 55 319 2.0 0.0 0.00 0.00 0.01 73 1012.8
20260507083627 55 24 2.0 0.0 0.00 0.00 0.01 73 1013.0
20260507083129 55 306 3.0 0.0 0.00 0.00 0.01 74 1013.1
20260507082627 55 24 3.0 0.0 0.00 0.00 0.01 74 1013.3
20260507081614 54 34 3.0 0.0 0.00 0.00 0.01 75 1013.5
20260507081118 54 319 2.0 0.0 0.00 0.00 0.01 76 1013.5